OBJECT BS, 43822

Orbit data source: Space-Track

You're viewing an Uncataloged Satellite

Recently launched and/or uncataloged satellites may have evolving metadata. Metadata may include but not limited to: Owner, Maufacturer, Bus, Motor, and Mission.

OBJECT BS, 43822 is a satellite in SSO that was launched on Mon, 03 Dec 2018 UTC via an FALCON 9 launch vehicle from the Air Force Western Test Range (AFWTR). Unknown objects in Earth's orbit typically refer to objects detected orbiting the Earth but have not yet been identified or cataloged. These objects could be anything from previously untracked satellites, spent rocket stages, debris from satellite collisions, or even natural meteoroids temporarily captured by Earth's gravity.

Loading next visibility...
Identifier
43822, 2018-099BS
Orbit
SSO
Country
Flag of TBDTBD
Related business
None
Manufacturer
Unknown
Mission
Amateur Technology
Bus & Motor
Unknown
Mass
Unknown
Launch date (UTC)
2018-12-03 (7 years ago)
Launch vehicle
FALCON 9
Launch site
Air Force Western Test Range (AFWTR)
Object type
Unknown
Shape & HBR
Box, 0.3 m
Radar Cross Section
0.025 m², Small (<0.1 m²)

Expand to show TLE details & history
Last TLE update: 12 hours ago

TLE from 12 hours ago
0 OBJECT BS
1 43822U 18099BS  25295.08071278  .00008173  00000-0  48535-3 0  9999
2 43822  97.4697 345.5676 0009965  94.5609 265.6760 15.11522844370219
Epoch: 2025-10-22T01:56Z
TLE epoch observation values (Epoch: 2025-10-22T01:56:13.584Z)
Latitude
0.00001°
Longitude
-74.24845°
Altitude
535.158 km
Speed
7.595 km/s
True Right ascension
23h 02m 16s
True Declination
0° 00' 00"
Sunlit
Object was in full shadow at epoch
Visualization orbit readout
Latitude
Unknown
Longitude
Unknown
Altitude
Unknown
Speed
Unknown
Apparent Right ascension
Unknown
Apparent Declination
Unknown
Sunlit
N/A
Visualization observer readout
Local Sidereal Time
09:29:47
Azimuth
Unknown
Elevation
Unknown
Doppler factor
Unknown
Orbital elements
Apogee altitude
535.418 km
Perigee altitude
521.653 km
Semi-major axis
6,906.672 km
Eccentricity
0.001
Inclination
97.4697°
RAAN
345.5676°
Arg. of periapsis
94.5609°
True anomaly
265.56215°
Mean anomaly
265.676°
Eccentric anomaly
265.61907°
Mean motion
3.78129 °/min
Orbital period
95.21 mins
BSTAR
0.00048535
Loading maneuver chart data...
Computing Atmospheric mass density...
Loading historical data...
Loading historical data...
Loading historical data...
Loading historical data...
Loading historical data...
Loading historical data...
Loading historical data...

Documentation

Showing up to 5 results
|